Regional Weather Roundup
Issued by NWS Wilmington, NC

Home | Current Version | Previous Version | Text Only | Print | Product List | Glossary On
Versions: 1 2 3 4 5 6 7 8 9 10 11 12 13 14 15 16 17 18 19 20 21 22 23 24 25 26 27
000
ASUS42 KILM 252313
RWRILM
RWRILM
REGIONAL HOURLY WEATHER ROUNDUP
NATIONAL WEATHER SERVICE WILMINGTON NC
700 PM EDT WED APR 25 2018

NOTE: "FAIR" INDICATES FEW OR NO CLOUDS BELOW 12,000 FEET WITH NO
SIGNIFICANT WEATHER AND/OR OBSTRUCTIONS TO VISIBILITY.

...............WFO WILMINGTON COUNTY WARNING AREA...............

......COASTAL NC AND SC COUNTIES......

CITY           SKY/WX    TMP DP  RH WIND       PRES   REMARKS
WILMINGTON     FAIR      73  55  53 W12       29.74R
N MYRTLE BEACH FAIR      75  56  51 W8        29.75R
MYRTLE BEACH   FAIR      76  56  49 W8        29.77R

......INLAND NC AND SC COUNTIES.......

CITY           SKY/WX    TMP DP  RH WIND       PRES   REMARKS
LUMBERTON      FAIR      71  58  63 NW6       29.76R
ELIZABETHTOWN  FAIR      71  55  58 MISG      29.76R
WHITEVILLE     NOT AVBL
FLORENCE       CLOUDY    75  55  49 NW9       29.77R
DARLINGTON     CLOUDY    72  59  63 NW3       29.78R
KINGSTREE      NOT AVBL
HARTSVILLE     CLOUDY    73  54  49 W5        29.77S
BENNETTSVILLE  CLOUDY    72  59  64 NW3       29.77R
CONWAY         CLOUDY    73  55  53 W7        29.77R
GEORGETOWN     FAIR      75  54  46 W8        29.78R
MARION         FAIR      72  54  53 NW3       29.77R

....................REST OF NORTH CAROLINA......................

.........EASTERN NC.........

CITY           SKY/WX    TMP DP  RH WIND       PRES   REMARKS
CAPE HATTERAS  MOCLDY    68  61  78 W14G24    29.70S
JACKSONVILLE   FAIR      68  57  68 W8G20     29.75R
MOREHEAD CITY  FAIR      65  60  84 W12       29.72R
KENANSVILLE    FAIR      68  57  68 W8        29.76R
NEW BERN       FAIR      69  56  62 W13G22    29.72R
ELIZABETH CITY MOCLDY    67  61  81 NE3       29.69R

.........CENTRAL NC.........

CITY           SKY/WX    TMP DP  RH WIND       PRES   REMARKS
RALEIGH DURHAM FAIR      67  57  70 VRB3      29.76R
ROCKY MOUNT    MOCLDY    64  58  80 W8        29.74R
ROANOKE RAPIDS NOT AVBL
FAYETTEVILLE   PTSUNNY   70  55  59 NW6       29.75S
HOFFMAN        PTSUNNY   69  56  62 NW6       29.77R

.........WESTERN NC.........

CITY           SKY/WX    TMP DP  RH WIND       PRES   REMARKS
CHARLOTTE      FAIR      71  52  50 NW9       29.81R
GREENSBORO     PTSUNNY   67  54  63 NW9       29.77R
HICKORY        NOT AVBL
BOONE          NOT AVBL
ASHEVILLE      NOT AVBL

.....................REST OF SOUTH CAROLINA.....................

.........EASTERN SC.........

CITY           SKY/WX    TMP DP  RH WIND       PRES   REMARKS
CHARLESTON     FAIR      76  54  46 W9        29.78R
BEAUFORT MCAS  FAIR      76  55  48 W9        29.80R
HILTON HEAD    PTSUNNY   75  54  46 NW6       29.82R

.........CENTRAL SC.........

CITY           SKY/WX    TMP DP  RH WIND       PRES   REMARKS
COLUMBIA       FAIR      76  56  49 NW8       29.78S
ORANGEBURG     FAIR      75  52  44 NW7       29.79R
SUMTER SHAW    FAIR      74  53  47 W6        29.76S

.........WESTERN SC.........

CITY           SKY/WX    TMP DP  RH WIND       PRES   REMARKS
GREENVILLE     NOT AVBL
ROCK HILL      FAIR      71  52  50 N7        29.81R
ANDERSON       PTSUNNY   71  52  50 W13       29.82R
CLEMSON        NOT AVBL
GREENWOOD      FAIR      73  52  47 W8        29.82R


...................COASTAL AND OFFSHORE REPORTS..................

................LOCAL PIERS AND NC RESERVE................


STATION/POSITION TIME  SKY/WX   TEMP    WIND        PRES    VSBY
                                AIR SEA DIR/SP/G
                 (UTC)          (F)     (DEG/KT/KT) (MB)    (MI)
JOHNY MRCER PIER 2242            73 65  270/ 11/ 21 1007.0R
NC RESRV MASNBRO NOT AVBL
OCEAN CREST PIER NOT AVBL
SPRINGMAID  PIER 2242                               1010.8R


................COASTAL AND OFFSHORE BUOYS................


STATION/POSITION TIME  SKY/WX   TEMP    WIND        PRES    VSBY
                                AIR SEA DIR/SP/G
                 (UTC)          (F)     (DEG/KT/KT) (MB)    (MI)
DIMNDSHOAL 41025 2300            69 69  240/ 19/ 25 1006.2
CAPE LOOKOUT     2300                   230/ 11/ 16 1006.5R
ONSLOW BAY 41036 NOT AVBL
ONSLOW BAY 41064 2208            67 67  230/ 17/ 21 1003.8R
ONSLOW BAY 41159 2300               67                N/A
WVE H/P(F/S)=  6/ 9 SWL H/P/D(F/S/D)=  2/110/11

MASNBO INL 41110 2300               63                N/A
WVE H/P(F/S)=  4/ 9 SWL H/P/D(F/S/D)=  2/120/11

WILM HARBR 41108 2300               62                N/A
WVE H/P(F/S)=  4/10 SWL H/P/D(F/S/D)=  2/130/11

27SE WRITB 41037 2208            66 67  240/ 16/ 23 1006.9R
FRYING PAN 41013 2250            69 70  230/ 17/ 21 1007.5S
WVE H/P(F/S)=  7/10 SWL H/P/D(F/S/D)=  5/120/10

SUNST NRSH 41024 2208            65 65  230/ 12/ 16 1006.7R
CAPRS NRSH 41029 2208            67 65  230/ 16/ 19 1008.1F
EDISTO     41004 2250               69  230/ 16/ 19 1008.5R
WVE H/P(F/S)=  5/10 SWL H/P/D(F/S/D)=  3/100/10



..........OFFSHORE BUOYS BEYOND 100 NM OFFSHORE...........
.....IN A TRIANGLE---HAT TO BERMUDA TO BAHAMAS TO HAT.....


STATION/POSITION TIME  SKY/WX   TEMP    WIND        PRES    VSBY
                                AIR SEA DIR/SP/G
                 (UTC)          (F)     (DEG/KT/KT) (MB)    (MI)
150E HAT   41001 NOT AVBL
W BERMUDA  41048 2250               70  170/ 17/ 21 1013.7F
WVE H/P(F/S)= 10/ 8 SWL H/P/D(F/S/D)=  7/120/ 8

ATLANTIC S 41049 2250               76  120/ 17/ 23 1020.3S
WVE H/P(F/S)=  8/ 8 SWL H/P/D(F/S/D)=  2/ 70/14

E BAHAMAS  41046 2250               79  140/ 12/ 14 1016.8S
WVE H/P(F/S)=  5/ 8 SWL H/P/D(F/S/D)=  3/ 70/ 8

NE BAHAMAS 41047 2250                   200/ 12/ 14 1014.3R
WVE H/P(F/S)=  6/ 8 SWL H/P/D(F/S/D)=  5/100/ 8

120E CANVRL41010 2250            74 76  230/  8/ 12 1011.7S
WVE H/P(F/S)=  5/ 8 SWL H/P/D(F/S/D)=  5/ 70/ 8


END




USA.gov is the U.S. government's official web portal to all federal, state and local government web resources and services.